Home > Weather > Basse-Terre > Past weeks

Flag for Guadeloupe Past Weather in Basse-Terre, Guadeloupe — Yesterday and Last 2 Weeks

Now
82 °F

Clear.


Feels Like: 89 °F
Forecast: 76 / 83 °F
Wind: 9 mph from Southeast

Location: Le Raizet - Guadeloupe

Current Time: May 28, 2016 at 8:06:07 AM

Latest Report: May 28, 2016 at 7:30 AM


Visibility: N/A

Pressure: 30.01 "Hg

Humidity: 79%

Dew Point: 75 °F

Location of Basse-TerreLocation

Past Weather in Basse-Terre — Graph

°F

Basse-Terre Temperature Yesterday

Maximum temperature yesterday: 88 °F (at 11:00 AM)
Minimum temperature yesterday: 77 °F (at 12:00 AM)
Average temperature yesterday: 82 °F

High & Low Weather Summary for the Past Weeks

 TemperatureHumidityPressure
High88 °F (May 14, 12:30 PM)94% (May 13, 6:30 AM)30.12 "Hg (May 13, 6:30 AM)
Low73 °F (May 26, 1:30 AM)52% (May 19, 3:00 PM)29.92 "Hg (May 26, 2:00 PM)
Average81 °F74%30.02 "Hg
* Reported May 13 6:00 AM — May 28 6:30 AM, Basse-Terre, Weather by CustomWeather, © 2016

Note: Actual official high and low records may vary slightly from our data, if they occured in-between our weather recording intervals... More about our weather records

Advertising

Basse-Terre Weather History for the Previous 24 Hours

Scroll right to see more
 ConditionsComfort  
Time TempWeatherWind HumidityBarometerVisibility
6:30 AM
Sat, May 28
81 °FOvercast.6 mph84%29.98 "HgN/A
6:00 AM81 °FScattered clouds.7 mph84%29.98 "HgN/A
5:30 AM79 °FClear.7 mph89%29.95 "HgN/A
5:00 AM79 °FPassing clouds.7 mph89%29.95 "HgN/A
4:30 AM79 °FPassing clouds.7 mph89%29.95 "HgN/A
4:00 AM79 °FPartly cloudy.6 mph89%29.95 "HgN/A
3:30 AM79 °FPartly cloudy.5 mph89%29.95 "Hg6 mi
3:00 AM79 °FLight rain. Partly cloudy.6 mph89%29.95 "Hg6 mi
2:30 AM79 °FPartly cloudy.10 mph89%29.95 "HgN/A
2:00 AM79 °FHeavy rain. Partly cloudy.5 mph89%29.95 "HgN/A
1:30 AM79 °FPartly cloudy.7 mph89%29.95 "HgN/A
1:00 AM79 °FPassing clouds.1 mph89%29.95 "Hg5 mi
12:30 AM79 °FPassing clouds.5 mph89%29.98 "HgN/A
12:00 AM79 °FMostly cloudy.5 mph89%29.98 "HgN/A
11:30 PM
Fri, May 27
79 °FPartly cloudy.7 mph89%29.98 "HgN/A
11:00 PM79 °FPartly cloudy.6 mph89%29.98 "HgN/A
10:30 PM79 °FRain. Fog.6 mph89%29.98 "Hg3 mi
10:00 PM81 °FPassing clouds.9 mph84%29.98 "HgN/A
9:30 PM81 °FWarm.8 mph79%29.98 "HgN/A
9:00 PM82 °FMostly cloudy.12 mph74%29.98 "HgN/A
8:30 PM82 °FPartly cloudy.8 mph74%29.98 "HgN/A
8:00 PM82 °FPartly cloudy.10 mph74%29.95 "HgN/A
7:30 PM82 °FPassing clouds.7 mph74%29.95 "HgN/A
7:00 PM82 °FOvercast.10 mph74%29.95 "HgN/A
6:30 PM82 °FBroken clouds.10 mph74%29.95 "HgN/A
6:00 PM82 °FScattered clouds.12 mph74%29.92 "HgN/A
5:30 PM82 °FBroken clouds.16 mph74%29.92 "HgN/A
5:00 PM84 °FScattered clouds.14 mph70%29.92 "HgN/A
4:30 PM84 °FScattered clouds.15 mph70%29.92 "HgN/A
4:00 PM84 °FPartly sunny.15 mph70%29.92 "HgN/A
3:30 PM86 °FPassing clouds.15 mph62%29.92 "HgN/A
3:00 PM88 °FPartly sunny.18 mph59%29.92 "HgN/A
2:30 PM88 °FPartly sunny.15 mph59%29.92 "HgN/A
2:00 PM88 °FPartly sunny.16 mph59%29.92 "HgN/A
1:30 PM86 °FPartly sunny.17 mph62%29.95 "HgN/A
1:00 PM88 °FBroken clouds.16 mph59%29.95 "HgN/A
12:30 PM88 °FScattered clouds.15 mph59%29.95 "HgN/A
12:00 PM88 °FPartly sunny.16 mph62%29.95 "HgN/A
11:30 AM88 °FPartly sunny.15 mph59%29.95 "HgN/A
11:00 AM88 °FPartly sunny.14 mph62%29.98 "HgN/A
10:30 AM86 °FPassing clouds.13 mph62%29.98 "HgN/A
10:00 AM86 °FBroken clouds.13 mph62%29.98 "HgN/A
9:30 AM86 °FPartly sunny.13 mph66%29.98 "HgN/A
9:00 AM84 °FMostly cloudy.14 mph70%29.98 "HgN/A
8:30 AM82 °FPartly sunny.10 mph74%29.98 "HgN/A
8:00 AM82 °FPassing clouds.12 mph74%29.98 "HgN/A
Weather by CustomWeather, © 2016

See weather overviewHow to use our weather pages